Regional Weather Roundup
Issued by NWS

Home | Current Version | Previous Version | Text Only | Print | Product List | Glossary On
Versions: 1 2 3 4 5 6 7 8 9 10 11 12 13 14 15 16 17 18 19 20 21 22 23 24 25 26 27 28 29 30 31 32 33 34 35 36 37 38 39 40 41 42 43 44 45 46 47 48 49 50
000
ASUS44 KFWD 260415
RWRTX
NORTH TEXAS HOURLY WEATHER ROUNDUP
NATIONAL WEATHER SERVICE FORT WORTH TX
1100 PM CDT FRI JUL 25 2014

NOTE: "FAIR" INDICATES FEW OR NO CLOUDS BELOW 12,000 FEET WITH NO
SIGNIFICANT WEATHER AND/OR OBSTRUCTIONS TO VISIBILITY.

TXZ118-119-260500-
DALLAS/FORT WORTH METROPLEX

CITY           SKY/WX    TMP DP  RH WIND       PRES   REMARKS
DFW AIRPORT    PTCLDY    89  69  51 S16       29.95R HX  93
DALLAS LOVE    CLEAR     88  70  55 S13       29.95R HX  93
FTW MEACHAM    CLEAR     90  66  45 S13       29.94R HX  92
DAL-EXECUTIVE  CLEAR     87  69  54 S7        29.96R HX  91
FTW-ALLIANCE   CLEAR     86  66  51 S10G18    29.94R
FTW-NAS-JRB    PTCLDY    91  64  40 S13       29.98R HX  92
FTW-SPINKS     CLEAR     85  67  54 S6        29.97S
ARLINGTON      CLEAR     87  69  54 S10G18    29.96R HX  91
GRAND PRAIRIE  CLEAR     87  68  53 SE9       29.97R HX  91
ADDISON        CLEAR     87  69  53 S12       29.97S HX  91
MESQUITE       CLEAR     83  71  66 S6        29.96S
LANCASTER      CLEAR     82  70  66 S5        29.97S
$$

TXZ091>094-102>105-117-120-121-131>134-260500-
NORTH CENTRAL TEXAS

CITY           SKY/WX    TMP DP  RH WIND       PRES   REMARKS
SHRMAN/DENISON CLEAR     86  69  57 SE12G17   29.96R HX  90
GAINESVILLE    CLEAR     80  68  67 SE3       29.97R
BOWIE          CLEAR     83  67  58 SE6       29.96R
BRIDGEPORT     CLEAR     87  62  43 S12       29.96R
DECATUR        CLEAR     86  64  48 S13       29.96R
DENTON         CLEAR     85  67  54 S9        29.94R
MCKINNEY       CLEAR     85  71  63 S10       29.96R HX  90
GREENVILLE     CLEAR     82  70  65 S7        29.97S
ROCKWALL       CLEAR     83  73  70 S7        29.95S
TERRELL        CLEAR     83  73  72 S7        29.97R
WAXAHACHIE     CLEAR     83  67  58 S8        29.98S
CLEBURNE       CLEAR     84  70  61 SE9       29.99R
GRANBURY       CLEAR     88  66  47 SE10      29.97S HX  91
$$

TXZ083>090-098>101-113>116-127>130-139>142-154-155-260500-
WESTERN NORTH TEXAS

CITY           SKY/WX    TMP DP  RH WIND       PRES   REMARKS
WICHITA FALLS  CLEAR     85  65  51 MISG      29.91R
WF-KICKAPOO    CLEAR     85  63  47 SE10      29.93R
VERNON         CLEAR     86  55  34 S10       29.92R
ABILENE        CLEAR     83  62  49 S7        29.99R
ABILENE-DYESS  CLEAR     83  65  54 S12       29.98R
BRECKENRIDGE   CLEAR     88  61  40 S10       29.96S
GRAHAM         CLEAR     88  62  42 SE7       29.94R
MINERAL WELLS  CLEAR     85  66  53 S10       29.95R
STEPHENVILLE   CLEAR     83  65  54 S5        30.02R
COMANCHE       CLEAR     83  64  52 S7        29.99S
BROWNWOOD      MOCLDY    84  64  51 SE8       29.99R
COLEMAN        CLEAR     84  63  48 SE9       30.00R
BRADY          CLEAR     82  63  51 SE5       30.01R
$$

TXZ143>147-156>162-174-175-260500-
CENTRAL TEXAS

CITY           SKY/WX    TMP DP  RH WIND       PRES   REMARKS
WACO           CLEAR     85  70  60 SE10      29.97R
WACO-TSTC      CLEAR     82  70  65 SE5       29.97R
WACO-MCGREGOR  CLEAR     82  66  57 S9        29.99R
HILLSBORO      CLEAR     84  68  59 SE7       29.98R
CORSICANA      CLEAR     82  72  71 S7        29.98R
MEXIA          CLEAR     79  72  79 SE3       29.97S
CAMERON        CLEAR     84  72  67 S8        29.98R
TEMPLE         CLEAR     82  66  57 SE12      29.98S
KILLEEN        CLEAR     84  68  58 SE12      29.99R
KILLEEN-SKYLRK CLEAR     84  66  54 SE10      29.99R
FORT HOOD      CLEAR     86  69  56 SE8       29.99R HX  90
GATESVILLE     CLEAR     82  70  65 SE3       30.00S
HAMILTON       CLEAR     82  65  56 SE8       30.01R
LAMPASAS       CLEAR     82  69  64 SE5       29.99S
$$

TXZ095>097-106>112-122>126-135>138-148>153-164>167-260500-
EAST TEXAS

CITY           SKY/WX    TMP DP  RH WIND       PRES   REMARKS
PARIS          CLEAR     79  70  73 S7        29.98R
SULPHUR SPRNGS CLEAR     83  71  66 S7        30.00R
CLARKSVILLE    PTCLDY    81  74  77 SE3       29.97S
MOUNT PLEASANT CLEAR     78  75  90 SE3       29.99S
GILMER         CLEAR     79  77  94 CALM      30.01R
MINEOLA        CLEAR     82  73  74 SE5       29.99R
TYLER          CLEAR     80  72  76 S5        29.98R
LONGVIEW       CLEAR     80  74  81 CALM      29.98R
MARSHALL       PTCLDY    78  76  91 CALM      30.01R
ATHENS         CLEAR     75  72  88 CALM      29.97S
JACKSONVILLE   CLEAR     80  73  79 CALM      30.02S
HENDERSON      CLEAR     77  75  94 CALM      30.00R
NACOGDOCHES    CLEAR     75  73  94 CALM      30.00R
LUFKIN         CLEAR     82  76  81 CALM      29.99R
$$

SUPPLEMENTAL OBSERVATIONS (CENTRAL)

CITY           SKY/WX    TMP DP  RH WIND       PRES   REMARKS
LAKE TEXOMA      N/A     84  68  58 SE8         N/A
CADDO GRASSLND   N/A     82  73  74 S6          N/A
PALESTINE        N/A     77  73  88 CALM        N/A
LAKE LIMESTONE   N/A     81  73  78 SE5         N/A
MCGREGOR         N/A     84  68  58 SE12        N/A
TEMPLE           N/A     82  70  65 SE10        N/A
$$

SUPPLEMENTAL OBSERVATIONS (WEST)

CITY           SKY/WX    TMP DP  RH WIND       PRES   REMARKS
MILLERS CREEK    N/A     88  57  35 S13         N/A
POSSUM KINGDOM   N/A     86  63  45 S6          N/A
LBJ GRASSLAND    N/A     84  64  51 S7          N/A
GRANBURY         N/A     88  66  48 S12         N/A  HX  90
COMANCHE         N/A     82  63  51 S9          N/A
HAMBY            N/A     82  59  44 SE6         N/A
IVIE RESERVOIR   N/A     84  61  45 SE7         N/A
COLORADO BEND    N/A     82  63  51 SE6         N/A
$$

SUPPLEMENTAL OBSERVATIONS (EAST)

CITY           SKY/WX    TMP DP  RH WIND       PRES   REMARKS
TEXARKANA        N/A     75  72  88 CALM        N/A
LINDEN           N/A     79  73  83 S1          N/A
CADDO LAKE       N/A     75  73  94 CALM        N/A
LUFKIN           N/A     79  77  94 MISG        N/A
N SABINE NF      N/A     75  72  88 MISG        N/A
$$

SUPPLEMENTAL OBSERVATIONS ARE A COLLECTION OF AUTOMATED INSTRUMENTS
THAT ARE MAINTAINED BY A VARIETY OF FEDERAL AND STATE AGENCIES.
CERTAIN ELEMENTS...SUCH AS HUMIDITY VALUES AND SUSTAINED WIND
SPEEDS...MAY BE APPROXIMATED.




USA.gov is the U.S. government's official web portal to all federal, state and local government web resources and services.